When you browse on this site, cookies collect data to enhance your experience and personalize the content and advertising you see.
Visit our Privacy Policy to learn more. By continuing to use the site, you agree to this use of cookies and data.
  • en Belgique
  • Liste des pays
  • À 7 jours
  • Température de l'eau
  • Carte satellitaire
  • Carte météo
  • Widgets météo
  • user-avatar
    Se connecter

    Météo par heure à Durbuy

    Ce jour, 20 Janvier, Dimanche

    Heure Température Précipitation Vent Pression Humidité
    00:00 -4°C° 0 mm 2 m/s 739 mmHg 74%
    01:00 -4°C° 0 mm 2 m/s 739 mmHg 74%
    02:00 -4°C° 0 mm 2 m/s 739 mmHg 73%
    03:00 -4°C° 0 mm 2 m/s 739 mmHg 72%
    04:00 -4°C° 0 mm 2 m/s 739 mmHg 71%
    05:00 -2°C° 0 mm 1 m/s 740 mmHg 71%
    06:00 -3°C° 0 mm 1 m/s 740 mmHg 69%
    07:00 -2°C° 0 mm 1 m/s 740 mmHg 66%
    08:00 -2°C° 0 mm 1 m/s 741 mmHg 62%
    09:00 -1°C° 0 mm 1 m/s 741 mmHg 59%
    10:00 0°C° 0 mm 1 m/s 741 mmHg 54%
    11:00 +1°C° 0 mm 1 m/s 742 mmHg 49%
    12:00 +3°C° 0 mm 1 m/s 742 mmHg 45%
    13:00 +1°C° 0 mm 2 m/s 742 mmHg 48%
    14:00 +1°C° 0 mm 2 m/s 742 mmHg 52%
    15:00 +1°C° 0 mm 2 m/s 742 mmHg 56%
    16:00 -1°C° 0 mm 2 m/s 743 mmHg 62%
    17:00 -3°C° 0 mm 2 m/s 743 mmHg 67%
    18:00 -4°C° 0 mm 2 m/s 743 mmHg 73%
    19:00 -2°C° 0 mm 1 m/s 744 mmHg 73%
    20:00 -2°C° 0 mm 1 m/s 745 mmHg 73%
    21:00 -3°C° 0 mm 1 m/s 745 mmHg 73%
    22:00 -3°C° 0 mm 1 m/s 745 mmHg 72%
    23:00 -3°C° 0 mm 1 m/s 746 mmHg 71%

    Demain, 21 Janvier, Lundi

    Heure Température Précipitation Vent Pression Humidité
    00:00 -3°C° 0 mm 1 m/s 746 mmHg 70%
    01:00 -3°C° 0 mm 1 m/s 746 mmHg 69%
    02:00 -3°C° 0 mm 1 m/s 746 mmHg 67%
    03:00 -3°C° 0 mm 1 m/s 746 mmHg 66%
    04:00 -4°C° 0 mm 0 m/s 746 mmHg 65%
    05:00 -4°C° 0 mm 0 m/s 747 mmHg 63%
    06:00 -4°C° 0 mm 0 m/s 747 mmHg 62%
    07:00 -3°C° 0 mm 0 m/s 747 mmHg 58%
    08:00 -3°C° 0 mm 0 m/s 747 mmHg 55%
    09:00 -2°C° 0 mm 0 m/s 748 mmHg 51%
    10:00 -1°C° 0 mm 0 m/s 747 mmHg 47%
    11:00 +1°C° 0 mm 0 m/s 747 mmHg 42%
    12:00 +2°C° 0 mm 0 m/s 747 mmHg 38%
    13:00 +2°C° 0 mm 0 m/s 746 mmHg 41%
    14:00 +1°C° 0 mm 0 m/s 746 mmHg 43%
    15:00 +1°C° 0 mm 0 m/s 746 mmHg 46%
    16:00 +1°C° 0 mm 1 m/s 746 mmHg 49%
    17:00 0°C° 0 mm 1 m/s 745 mmHg 51%
    18:00 -1°C° 0 mm 1 m/s 745 mmHg 53%
    19:00 -1°C° 0 mm 1 m/s 745 mmHg 54%
    20:00 -4°C° 0 mm 2 m/s 744 mmHg 55%
    21:00 -4°C° 0 mm 2 m/s 744 mmHg 56%
    22:00 -4°C° 0 mm 2 m/s 743 mmHg 56%
    23:00 -5°C° 0 mm 3 m/s 742 mmHg 56%

    Après-demain, 22 Janvier, Mardi

    Heure Température Précipitation Vent Pression Humidité
    00:00 -5°C° 0 mm 3 m/s 742 mmHg 57%
    01:00 -5°C° 0 mm 4 m/s 741 mmHg 57%
    02:00 -5°C° 0 mm 4 m/s 740 mmHg 58%
    03:00 -4°C° 0 mm 4 m/s 739 mmHg 58%
    04:00 -5°C° 0 mm 5 m/s 738 mmHg 59%
    05:00 -5°C° 0 mm 5 m/s 737 mmHg 59%
    06:00 -5°C° 0 mm 6 m/s 736 mmHg 59%
    07:00 -5°C° 0 mm 6 m/s 735 mmHg 57%
    08:00 -4°C° 0 mm 6 m/s 735 mmHg 54%
    09:00 -4°C° 0 mm 7 m/s 734 mmHg 52%
    10:00 -3°C° 0 mm 7 m/s 733 mmHg 54%
    11:00 -3°C° 0 mm 6 m/s 732 mmHg 56%
    12:00 -3°C° 0 mm 6 m/s 732 mmHg 58%
    13:00 -3°C° 0.1 mm 6 m/s 731 mmHg 65%
    14:00 -2°C° 0.1 mm 5 m/s 731 mmHg 71%
    15:00 -2°C° 0.1 mm 5 m/s 730 mmHg 77%
    16:00 -3°C° 0.4 mm 4 m/s 730 mmHg 82%
    17:00 -2°C° 0.4 mm 3 m/s 730 mmHg 87%
    18:00 -2°C° 0.4 mm 3 m/s 730 mmHg 91%
    19:00 -2°C° 0.5 mm 2 m/s 729 mmHg 93%
    20:00 -2°C° 0.5 mm 2 m/s 729 mmHg 94%
    21:00 0°C° 0.5 mm 1 m/s 729 mmHg 95%
    22:00 0°C° 0.4 mm 1 m/s 729 mmHg 96%
    23:00 0°C° 0.4 mm 1 m/s 729 mmHg 96%

    23 Janvier, Mercredi

    Heure Température Précipitation Vent Pression Humidité
    00:00 -2°C° 0.4 mm 2 m/s 729 mmHg 97%
    01:00 -2°C° 0.2 mm 2 m/s 729 mmHg 97%
    02:00 -2°C° 0.2 mm 2 m/s 729 mmHg 96%
    03:00 -3°C° 0.2 mm 2 m/s 729 mmHg 96%
    04:00 -3°C° 0.1 mm 2 m/s 729 mmHg 96%
    05:00 -3°C° 0.1 mm 2 m/s 729 mmHg 96%
    06:00 -2°C° 0.1 mm 1 m/s 729 mmHg 96%
    07:00 -2°C° 0 mm 1 m/s 730 mmHg 95%
    08:00 -1°C° 0 mm 1 m/s 730 mmHg 94%
    09:00 -1°C° 0 mm 1 m/s 730 mmHg 93%
    10:00 0°C° 0 mm 1 m/s 731 mmHg 90%
    11:00 +1°C° 0 mm 1 m/s 731 mmHg 86%
    12:00 +2°C° 0 mm 1 m/s 731 mmHg 83%
    13:00 +2°C° 0 mm 1 m/s 732 mmHg 85%
    14:00 +2°C° 0 mm 1 m/s 732 mmHg 87%
    15:00 +2°C° 0 mm 1 m/s 732 mmHg 90%
    16:00 +1°C° 0 mm 1 m/s 733 mmHg 92%
    17:00 -1°C° 0 mm 1 m/s 733 mmHg 94%
    18:00 -2°C° 0 mm 1 m/s 734 mmHg 97%
    19:00 -1°C° 0 mm 1 m/s 734 mmHg 97%
    20:00 -1°C° 0 mm 1 m/s 735 mmHg 97%
    21:00 0°C° 0 mm 1 m/s 735 mmHg 97%
    22:00 0°C° 0 mm 1 m/s 735 mmHg 97%
    23:00 0°C° 0 mm 1 m/s 736 mmHg 97%

    24 Janvier, Jeudi

    Heure Température Précipitation Vent Pression Humidité
    00:00 0°C° 0 mm 1 m/s 736 mmHg 97%
    01:00 0°C° 0 mm 1 m/s 736 mmHg 97%
    02:00 0°C° 0 mm 1 m/s 736 mmHg 96%
    03:00 0°C° 0 mm 1 m/s 736 mmHg 96%
    04:00 -1°C° 0 mm 1 m/s 736 mmHg 96%
    05:00 -1°C° 0 mm 1 m/s 737 mmHg 96%
    06:00 -1°C° 0 mm 1 m/s 737 mmHg 96%
    07:00 -1°C° 0 mm 1 m/s 737 mmHg 95%
    08:00 0°C° 0 mm 1 m/s 737 mmHg 94%
    09:00 0°C° 0 mm 1 m/s 737 mmHg 92%
    10:00 +1°C° 0 mm 1 m/s 738 mmHg 89%
    11:00 +1°C° 0 mm 1 m/s 738 mmHg 86%
    12:00 +2°C° 0 mm 1 m/s 738 mmHg 83%
    13:00 +2°C° 0 mm 1 m/s 737 mmHg 83%
    14:00 +2°C° 0 mm 1 m/s 737 mmHg 84%
    15:00 +1°C° 0 mm 1 m/s 737 mmHg 84%
    16:00 0°C° 0 mm 1 m/s 738 mmHg 87%
    17:00 -2°C° 0 mm 0 m/s 738 mmHg 89%
    18:00 -3°C° 0 mm 0 m/s 739 mmHg 91%
    19:00 -3°C° 0 mm 0 m/s 739 mmHg 91%
    20:00 -4°C° 0 mm 0 m/s 740 mmHg 91%
    21:00 -4°C° 0 mm 0 m/s 740 mmHg 91%
    22:00 -4°C° 0 mm 0 m/s 741 mmHg 91%
    23:00 -4°C° 0 mm 0 m/s 741 mmHg 91%

    25 Janvier, Vendredi

    Heure Température Précipitation Vent Pression Humidité
    00:00 -4°C° 0 mm 0 m/s 741 mmHg 90%
    01:00 -4°C° 0 mm 0 m/s 742 mmHg 91%
    02:00 -4°C° 0 mm 0 m/s 742 mmHg 91%
    03:00 -4°C° 0 mm 0 m/s 742 mmHg 92%
    04:00 -4°C° 0 mm 0 m/s 743 mmHg 92%
    05:00 -4°C° 0 mm 0 m/s 743 mmHg 93%
    06:00 -4°C° 0 mm 0 m/s 744 mmHg 94%
    07:00 -4°C° 0 mm 0 m/s 744 mmHg 93%
    08:00 -3°C° 0 mm 0 m/s 745 mmHg 92%
    09:00 -2°C° 0 mm 0 m/s 746 mmHg 92%
    10:00 0°C° 0 mm 1 m/s 746 mmHg 89%
    11:00 +1°C° 0 mm 1 m/s 746 mmHg 86%
    12:00 +2°C° 0 mm 1 m/s 746 mmHg 83%
    13:00 +2°C° 0 mm 1 m/s 746 mmHg 85%
    14:00 +1°C° 0 mm 1 m/s 747 mmHg 87%
    15:00 +1°C° 0 mm 1 m/s 747 mmHg 89%
    16:00 0°C° 0 mm 1 m/s 747 mmHg 91%
    17:00 -1°C° 0 mm 1 m/s 747 mmHg 93%
    18:00 -3°C° 0 mm 0 m/s 748 mmHg 95%
    19:00 -3°C° 0 mm 0 m/s 748 mmHg 94%
    20:00 -2°C° 0 mm 1 m/s 748 mmHg 94%
    21:00 -2°C° 0 mm 1 m/s 748 mmHg 93%
    22:00 -2°C° 0 mm 1 m/s 748 mmHg 92%
    23:00 -2°C° 0 mm 1 m/s 748 mmHg 92%
    Voir plus